| time (UTC) | temp F | wind direction | speed MPH | gust MPH | rain 1hr in | rain 24hr in | rain mn in | humidity % | barometer mb |
| 20260509181506 | 74 | 158 | 0.0 | 0.0 | 0.00 | 0.00 | 0.00 | 40 | 1010.1 |
| 20260509174555 | 73 | 124 | 0.0 | 7.0 | 0.00 | 0.00 | 0.00 | 26 | 1010.6 |
| 20260509173051 | 72 | 101 | 0.0 | 9.0 | 0.00 | 0.00 | 0.00 | 19 | 1010.6 |
| 20260509171549 | 73 | 139 | 2.0 | 8.0 | 0.00 | 0.00 | 0.00 | 11 | 1010.8 |
| 20260509170048 | 72 | 181 | 0.0 | 0.0 | 0.00 | 0.00 | 0.00 | 16 | 1010.8 |
| 20260509164542 | 71 | 264 | 0.0 | 10.0 | 0.00 | 0.00 | 0.00 | 2 | 1010.7 |
| 20260509163034 | 70 | 146 | 0.0 | 0.0 | 0.00 | 0.00 | 0.00 | 1 | 1010.7 |
| 20260509161533 | 69 | 189 | 0.0 | 0.0 | 0.00 | 0.00 | 0.00 | 1 | 1010.5 |
| 20260509160031 | 68 | 265 | 0.0 | 0.0 | 0.00 | 0.00 | 0.00 | 1 | 1010.6 |
| 20260509154518 | 68 | 245 | 0.0 | 0.0 | 0.00 | 0.00 | 0.00 | 1 | 1010.9 |
| 20260509153014 | 68 | 263 | 0.0 | 0.0 | 0.00 | 0.00 | 0.00 | 1 | 1010.8 |
| 20260509151509 | 68 | 270 | 0.0 | 0.0 | 0.00 | 0.00 | 0.00 | 1 | 1010.6 |
| 20260509150006 | 67 | 241 | 0.0 | 0.0 | 0.00 | 0.00 | 0.00 | 1 | 1010.6 |
| 20260509144502 | 66 | 116 | 0.0 | 0.0 | 0.00 | 0.01 | 0.00 | 1 | 1010.4 |
| 20260509143057 | 65 | 149 | 0.0 | 4.0 | 0.00 | 0.01 | 0.00 | 1 | 1010.4 |
| 20260509141553 | 64 | 221 | 0.0 | 0.0 | 0.00 | 0.01 | 0.00 | 1 | 1010.4 |
| 20260509140059 | 64 | 211 | 0.0 | 0.0 | 0.00 | 0.01 | 0.00 | 1 | 1010.6 |
| 20260509134545 | 63 | 243 | 0.0 | 1.0 | 0.00 | 0.01 | 0.00 | 1 | 1010.5 |
| 20260509133040 | 63 | 174 | 0.0 | 0.0 | 0.00 | 0.01 | 0.00 | 1 | 1010.3 |
| 20260509131539 | 63 | 113 | 0.0 | 0.0 | 0.00 | 0.01 | 0.00 | 1 | 1009.9 |
| 20260509130033 | 62 | 113 | 0.0 | 0.0 | 0.00 | 0.01 | 0.00 | 1 | 1009.6 |
| 20260509124532 | 62 | 113 | 0.0 | 0.0 | 0.00 | 0.01 | 0.00 | 1 | 1009.5 |
| 20260509123033 | 61 | 113 | 0.0 | 0.0 | 0.00 | 0.01 | 0.00 | 1 | 1009.3 |
| 20260509121527 | 61 | 113 | 0.0 | 0.0 | 0.00 | 0.01 | 0.00 | 1 | 1009.6 |
| 20260509120025 | 61 | 103 | 0.0 | 0.0 | 0.00 | 0.01 | 0.00 | 1 | 1009.7 |
| 20260509114519 | 61 | 103 | 0.0 | 0.0 | 0.00 | 0.01 | 0.00 | 1 | 1009.4 |
| 20260509113017 | 61 | 132 | 0.0 | 0.0 | 0.00 | 0.01 | 0.00 | 1 | 1009.4 |
| 20260509111510 | 61 | 121 | 0.0 | 0.0 | 0.00 | 0.01 | 0.00 | 1 | 1009.2 |
| 20260509110005 | 61 | 138 | 0.0 | 0.0 | 0.00 | 0.01 | 0.00 | 1 | 1009.2 |
| 20260509104501 | 61 | 138 | 0.0 | 0.0 | 0.00 | 0.01 | 0.00 | 1 | 1009.2 |
| 20260509103102 | 61 | 138 | 0.0 | 0.0 | 0.00 | 0.01 | 0.00 | 1 | 1008.9 |
| 20260509101558 | 60 | 77 | 0.0 | 0.0 | 0.00 | 0.01 | 0.00 | 1 | 1008.9 |
| 20260509100051 | 60 | 77 | 0.0 | 0.0 | 0.00 | 0.01 | 0.00 | 1 | 1008.4 |
| 20260509094543 | 60 | 77 | 0.0 | 0.0 | 0.00 | 0.01 | 0.00 | 1 | 1008.0 |
| 20260509093040 | 60 | 131 | 0.0 | 0.0 | 0.00 | 0.01 | 0.00 | 1 | 1007.9 |
| 20260509091536 | 60 | 128 | 0.0 | 0.0 | 0.00 | 0.01 | 0.00 | 1 | 1007.8 |
| 20260509090030 | 60 | 309 | 0.0 | 0.0 | 0.00 | 0.01 | 0.00 | 1 | 1008.2 |
| 20260509084529 | 60 | 309 | 0.0 | 0.0 | 0.00 | 0.01 | 0.00 | 1 | 1008.3 |
| 20260509083020 | 60 | 309 | 0.0 | 0.0 | 0.00 | 0.01 | 0.00 | 1 | 1008.4 |
| 20260509081517 | 61 | 309 | 0.0 | 0.0 | 0.00 | 0.01 | 0.00 | 1 | 1008.3 |
| 20260509080013 | 61 | 309 | 0.0 | 0.0 | 0.00 | 0.01 | 0.00 | 1 | 1008.5 |
| 20260509074507 | 62 | 309 | 0.0 | 0.0 | 0.00 | 0.01 | 0.00 | 1 | 1008.5 |
| 20260509073011 | 62 | 310 | 0.0 | 0.0 | 0.00 | 0.01 | 0.00 | 1 | 1008.9 |
| 20260509071559 | 62 | 310 | 0.0 | 0.0 | 0.00 | 0.01 | 0.00 | 1 | 1009.0 |
| 20260509070059 | 62 | 310 | 0.0 | 0.0 | 0.00 | 0.01 | 0.00 | 1 | 1009.5 |
| 20260509064550 | 62 | 310 | 0.0 | 0.0 | 0.00 | 0.01 | 0.00 | 1 | 1009.2 |
| 20260509063046 | 62 | 77 | 0.0 | 0.0 | 0.00 | 0.01 | 0.00 | 1 | 1008.9 |
| 20260509061541 | 62 | 176 | 0.0 | 0.0 | 0.00 | 0.01 | 0.00 | 1 | 1010.0 |
| 20260509060046 | 62 | 251 | 0.0 | 0.0 | 0.00 | 0.01 | 0.00 | 1 | 1010.1 |
| 20260509054532 | 62 | 183 | 0.0 | 0.0 | 0.00 | 0.01 | 0.00 | 1 | 1010.0 |
| 20260509053032 | 62 | 124 | 0.0 | 0.0 | 0.00 | 0.01 | 0.00 | 1 | 1010.0 |
| 20260509051522 | 62 | 123 | 0.0 | 0.0 | 0.00 | 0.01 | 0.00 | 1 | 1009.6 |
| 20260509050018 | 62 | 124 | 0.0 | 0.0 | 0.00 | 0.01 | 0.00 | 1 | 1009.3 |
| 20260509044516 | 62 | 88 | 0.0 | 0.0 | 0.00 | 0.01 | 0.01 | 1 | 1009.3 |
| 20260509043015 | 61 | 118 | 0.0 | 0.0 | 0.00 | 0.01 | 0.01 | 1 | 1009.5 |
| 20260509041505 | 61 | 118 | 0.0 | 0.0 | 0.00 | 0.01 | 0.01 | 1 | 1010.1 |
| 20260509040001 | 61 | 118 | 0.0 | 0.0 | 0.00 | 0.01 | 0.01 | 1 | 1010.1 |
| 20260509034601 | 61 | 118 | 0.0 | 0.0 | 0.00 | 0.01 | 0.01 | 1 | 1010.1 |
| 20260509033053 | 60 | 118 | 0.0 | 0.0 | 0.00 | 0.01 | 0.01 | 1 | 1010.0 |
| 20260509031548 | 60 | 118 | 0.0 | 0.0 | 0.00 | 0.01 | 0.01 | 1 | 1009.9 |
| 20260509030047 | 59 | 118 | 0.0 | 0.0 | 0.00 | 0.01 | 0.01 | 1 | 1009.7 |
| 20260509024539 | 59 | 118 | 0.0 | 0.0 | 0.00 | 0.01 | 0.01 | 1 | 1009.7 |
| 20260509023034 | 59 | 118 | 0.0 | 0.0 | 0.00 | 0.01 | 0.01 | 1 | 1009.6 |
| 20260509021535 | 59 | 118 | 0.0 | 0.0 | 0.00 | 0.01 | 0.01 | 1 | 1009.6 |
| 20260509020026 | 59 | 155 | 0.0 | 0.0 | 0.00 | 0.01 | 0.01 | 1 | 1009.8 |
| 20260509014521 | 61 | 155 | 0.0 | 0.0 | 0.00 | 0.01 | 0.01 | 4 | 1009.9 |
| 20260509013019 | 62 | 155 | 0.0 | 0.0 | 0.00 | 0.01 | 0.01 | 16 | 1009.9 |
| 20260509011514 | 63 | 155 | 0.0 | 0.0 | 0.00 | 0.01 | 0.01 | 20 | 1009.6 |
| 20260509010016 | 64 | 142 | 0.0 | 0.0 | 0.00 | 0.01 | 0.01 | 31 | 1009.7 |
| 20260509004505 | 65 | 113 | 0.0 | 0.0 | 0.00 | 0.01 | 0.01 | 42 | 1009.8 |
| 20260509003100 | 66 | 219 | 0.0 | 0.0 | 0.00 | 0.01 | 0.01 | 47 | 1010.1 |
| 20260509001555 | 67 | 118 | 0.0 | 0.0 | 0.00 | 0.01 | 0.01 | 54 | 1010.0 |
| 20260509000052 | 68 | 120 | 0.0 | 6.0 | 0.00 | 0.01 | 0.01 | 57 | 1009.8 |
| 20260508234546 | 68 | 84 | 0.0 | 0.0 | 0.00 | 0.01 | 0.01 | 49 | 1009.8 |
| 20260508233042 | 67 | 124 | 0.0 | 0.0 | 0.00 | 0.01 | 0.01 | 52 | 1009.8 |
| 20260508231538 | 67 | 150 | 0.0 | 0.0 | 0.00 | 0.01 | 0.01 | 54 | 1010.2 |
| 20260508230033 | 67 | 140 | 0.0 | 0.0 | 0.00 | 0.01 | 0.01 | 54 | 1010.2 |
| 20260508224528 | 67 | 101 | 0.0 | 0.0 | 0.00 | 0.01 | 0.01 | 57 | 1009.9 |
| 20260508223037 | 67 | 139 | 0.0 | 0.0 | 0.00 | 0.01 | 0.01 | 59 | 1009.9 |
| 20260508221520 | 68 | 107 | 0.0 | 2.0 | 0.00 | 0.01 | 0.01 | 60 | 1010.3 |
| 20260508220020 | 68 | 129 | 0.0 | 0.0 | 0.00 | 0.01 | 0.01 | 60 | 1010.7 |
| 20260508214510 | 68 | 207 | 0.0 | 0.0 | 0.00 | 0.01 | 0.01 | 61 | 1010.8 |
| 20260508213009 | 68 | 213 | 0.0 | 2.0 | 0.00 | 0.01 | 0.01 | 60 | 1010.9 |
| 20260508211503 | 68 | 148 | 0.0 | 0.0 | 0.00 | 0.01 | 0.01 | 60 | 1011.1 |
| 20260508204557 | 69 | 239 | 0.0 | 0.0 | 0.00 | 0.01 | 0.01 | 58 | 1011.2 |
| 20260508203056 | 69 | 102 | 0.0 | 5.0 | 0.00 | 0.01 | 0.01 | 56 | 1011.2 |
| 20260508201546 | 70 | 153 | 0.0 | 3.0 | 0.00 | 0.01 | 0.01 | 56 | 1011.1 |
| 20260508200041 | 70 | 156 | 0.0 | 4.0 | 0.00 | 0.01 | 0.01 | 58 | 1011.6 |
| 20260508194536 | 70 | 148 | 0.0 | 6.0 | 0.00 | 0.01 | 0.01 | 58 | 1011.8 |
| 20260508193036 | 70 | 206 | 0.0 | 3.0 | 0.00 | 0.01 | 0.01 | 56 | 1011.5 |
| 20260508191531 | 70 | 100 | 0.0 | 0.0 | 0.00 | 0.01 | 0.01 | 56 | 1011.8 |
| 20260508190027 | 70 | 77 | 0.0 | 0.0 | 0.00 | 0.01 | 0.01 | 57 | 1011.7 |
| 20260508184519 | 69 | 152 | 0.0 | 0.0 | 0.00 | 0.01 | 0.01 | 57 | 1012.2 |
| 20260508183014 | 69 | 159 | 0.0 | 0.0 | 0.00 | 0.01 | 0.01 | 56 | 1012.5 |